Погода в Тюмени

Погода в Тюмени : погода сейчас, прогноз погоды и архив. Всё, что Вы хотите узнать о погоде в Тюмени!

Хотите узнать прогноз погоды в Тюмени? Тогда Вам сюда: Погода в Тюмени

Поиск расширенной информации на нашем сайте:

Другие новости

Новости СМИ2

Главная страница сайта

Новости сайта

02.10.2013

Напоминаем, что на нашем новом сайте вы можете получить высокодетализированные прогнозы погоды по пунктам России, СНГ и мира (включающие важные для авиации метеовеличины, такие как направление и скорость ветра, видимость, явления погоды, количество и форма облачности, нижняя и верхняя граница облачности), а также ознакомиться с разнообразными материалами по авиационной метеорологии и подборкой полезных ссылок на эту тему.

Сайт Метеоцентр.Азия посвящён разработке технологий оптимизации авиаметеорологического обслуживания, включая проектирование и перспективное создание нескольких автоматизированных авиаметеорологических систем:
- система выпуска высокодетальных прогностических карт явлений погоды для нижнего воздушного пространства по России и ближнему зарубежью;
- система верификации прогнозов TAF (выпускаемых синоптиками официальных АМСГ РФ и ближнего зарубежья) и AUTOTAF (выпускаемых сайтом Метеоцентр.Азия) - выявление ошибок, онлайн-сопоставление с фактической погодой METAR, автоматическое внесение коррективов в прогнозы при резком отклонении фактической погоды от прогноза, подсчёт оправдываемости прогнозов по элементам и в целом;
- система обработки, анализа и отображения авиаметеорологической информации для применения провайдерами метеорологической информации.


Погода в Тюмени - сегодня

Время (UTC), дата Ветер
(°,м/с) 
Видим.   Явления Облачность Т
(°С)
Тd
(°С)
f(%) Тe
(°С)
Pmin
(гПа)
dP
(гПа)
Po
(мм)
O2
(г/м3)
Тmin Tmax R s Состояние
почвы
18 27.04.17 170 (Ю) 50000 м    ясно 
+4.4 -2.3 62 +5  1024.5  0.1  759  301           
21 27.04.17 190 (Ю) 50000 м    8/0 средняя, верхняя 
[Ac trans|Ci fib]
+7 -4.2 45 +7  1023.2  -1.1  758  298           
00 28.04.17 200 (Ю) 4000 м    ясно 
+6.9 -4.6 44 +7  1021.8  -1.4  757  298           
03 28.04.17 220 (ЮЗ) 4000 м    6/0 верхняя 
[Ci fib]
+10.8 -0.6 45 +10  1021  -0.5  757  293  +4.1        сухая 
06 28.04.17 220 (ЮЗ) 4000 м    10/0 средняя, верхняя 
[Ac trans|Cs]
+16.5 +0.9 35 +16  1019.6  -1.1  756  287           
09 28.04.17 230 (ЮЗ) 5-11{12}  4000 м    10/3 600 м средняя, верхняя 
[Cu hum|Ac lent|Cs]
+19.4 +1.4 30 +20  1017.7  -1.8  754  284           
12 28.04.17 220 (ЮЗ) 6-11{13}  4000 м    3/0 средняя, верхняя 
[Ac lent|Ci fib]
+20.9 -0.8 23 +21  1015.4  -2.2  753  282           
15 28.04.17 230 (ЮЗ) 4{13}  4000 м    4/0 средняя, верхняя 
[Ac trans|Ci sp]
+18.4 -0.7 27 +19  1015.4  -0.2  753  284    +21.1       
18 28.04.17 330 (СЗ) 50000 м    4/0 средняя, верхняя 
[Ac trans|Ci sp]
+12.9 +4.5 57 +13  1017.1  1.5  754  289           
21 28.04.17 240 (ЮЗ) 50000 м    10/0 средняя 
[Ac und]
+10.9 +3.7 61 +12  1018.1  0.9  754  292           
00 29.04.17 300 (СЗ) 4000 м    10/10 600 м 
[Sc]
+8.9 +2.2 63 +8  1020.7  2.4  756  295           
03 29.04.17 290 (З) 4000 м    4/0 верхняя 
[Ci sp]
+8.8 +0.2 55 +8  1023.3  2.6  758  296  +7.7         
06 29.04.17 310 (СЗ) 5-10{10}  4000 м    3/3 1000 м верхняя 
[Cu hum|Ci fib]
+12 -7.4 25 +11  1023.9  0.7  759  294           
09 29.04.17 270 (З) 6-12{12}  4000 м    8/6 1000 м верхняя 
[Cu hum|Ci sp]
+14.3 -9.4 18 +14  1023.2  -0.6  758  291           
12 29.04.17 280 (З) 4{12}  4000 м    10/3 1000 м верхняя 
[Cu hum|Cs]
+13.6 -8.8 20 +13  1022.9  -0.3  758  292           
15 29.04.17 290 (З) 5-11{11}  4000 м    10/1 600 м верхняя 
[Sc|Cs]
+11.1 -9.4 23 +10  1023.7  0.7  758  295    +14.6       
18 29.04.17 350 (С) 2{11}  50000 м    8/8 600 м 
[Sc]
+7.5 -3.6 45 +7  1026.6  2.8  761  299           
21 29.04.17 360 (С) 3{10}  50000 м    8/0 средняя 
[Ac trans]
+5.5 -8.8 35 +4  1029.4  2.8  763  302           
00 30.04.17 320 (СЗ) 4000 м    ясно 
+1 -11 40 1032.2  2.6  764  308           
03 30.04.17 310 (СЗ) 4000 м    ясно 
+3.8 -11.3 32 +3  1034  1.9  766  305  +0.8        сухая 
06 30.04.17 310 (СЗ) 4{10}  4000 м    1/1 1000 м 
[Cu hum]
+6.9 -9.9 29 +6  1034.1  0.3  766  302           
09 30.04.17 270 (З) 5-10{11}  4000 м    3/3 1000 м 
[Cu hum]
+9.9 -9.9 24 +9  1033  -1  765  299           
12 30.04.17 310 (СЗ) 5{11}  4000 м    ясно 
+11.7 -11 19 +11  1031.6  -1.3  764  296           
15 30.04.17 300 (СЗ) 4000 м    ясно 
+10.3 -8.7 25 +10  1030.8  -1.3  764  297    +12       
18 30.04.17 тихо ()   50000 м    ясно 
+2.7 -6.2 52 +3  1031.9  0.7  764  306           
Время (UTC), дата Ветер
(°,м/с) 
Видим.   Явления Облачность Т
(°С)
Тd
(°С)
f(%) Тe
(°С)
Pmin
(гПа)
dP
(гПа)
Po
(мм)
O2
(г/м3)
Тmin Tmax R s Состояние
почвы

Для получения пояснительной информации подведите курсор к названию столбца.

ПОГОДА в Тюмени - архив

Всё, что Вы хотите узнать о погоде в Тюмени - удобно и подробно!

Выберите нужную дату (начиная с 1 января 2015* года) и нажмите кнопку "Найти".
Будут отображены архивные сводки погоды по пункту Тюмень, начиная с указанной даты.


Отображать данные в формате CSV (для использования в таблицах Excel)


Внимание! Наш архив погоды предназначен исключительно для личного некоммерческого использования в познавательных целях. Если Вам необходимы официальные справки о состоянии погоды (для производственных, юридических, коммерческих и т.п. целей), обращайтесь в органы Росгидромета.

*Примечание: данная дата относится к архиву по метеостанциям СССР (Россия, СНГ, Балтия).
Архив по метеостанциям Зарубежной Европы и Азии (кроме Китая) хранится 10 дней, по другим регионам земного шара (Китай, Африка, Америка, Австралия, Океания) - 1 день.

Тюмень - район местоположения метеостанции


Название, широта, долгота, высота метеостанции:
Тюмень 57.1°ш. 65.4°д. 102 м над ур. моря [Российская Федерация]

Дополнительная информация

В oтличие oт бoльшинства пoгoдных сайтoв мы публикуем пoдрoбную метеoинфoрмацию в детальнoм прoфессиoнальнoм фoрмате.

Характеристики температуры и влажнoсти вoздуха измеряются на высoте 2 м в тени вдали oт зданий и деревьев.
Скoрoсть ветра измеряется на высoте 10 м (на урoвне рoста челoвека скoрoсть ветра ниже в 1.5-2 раза). Если метеoстанция нахoдится в гoрoде или в лесу, тo скoрoсть ветра занижена на 2-4 м/с пo сравнению с oткрытым местoм. Скoрoсть ветра над акватoриями крупных рек и oзёр, а также на вершинах хoлмoв на 2-5 м/с выше, чем в oбычных услoвиях.
Атмoсфернoе давление в разных тoчках местнoсти мoжет значительнo oтличаться oт давления на метеoстанции, в зависимoсти oт услoвий рельефа (при пoдъёме на 10 м давление пoнижается примернo на 1 мм рт.ст.).